Location: Newark
(30.1000°N, 109.4667°E)
Time: 16:53:31
(UTC+00:00)

Vanguard 2 Rocket - Pass Details

Date: 23 February 2020
Orbit: 554 x 3326 km, 32.9° (Epoch: 04 April)

Event Time Altitude Azimuth Distance (km) Brightness Sun altitude
Rises 15:21:44 0° 278° (W) 6,722 11.7 -60.2°
Reaches altitude 10° 15:26:48 10° 280° (W) 5,347 11.0 -61.1°
Enters shadow 15:33:02 28° 283° (WNW) 3,570 9.9 -62.1°
